This is the latest recevied weather packets stored in our database for station/object WX2P-13. If no packets are shown the sender has not sent any weather packets the latest 1 day(s).
| Time | Temp. | Humidity | Pressure | Rain* | Wind** | Luminosity | Snow |
|---|---|---|---|---|---|---|---|
| 1778037289 | 20° C | 93% | 1016.8 hPa | 0 mm | - | 0 W/m² | - |
| 1778036986 | 20° C | 92% | 1016.9 hPa | 0 mm | - | 0 W/m² | - |
| 1778036381 | 20° C | 92% | 1016.7 hPa | 0 mm | - | 0 W/m² | - |
| 1778036078 | 20° C | 92% | 1016.5 hPa | 0 mm | - | 0 W/m² | - |
| 1778035774 | 20° C | 91% | 1016.6 hPa | 0 mm | - | 0 W/m² | - |
| 1778035167 | 20.56° C | 91% | 1016.5 hPa | 0 mm | - | 0 W/m² | - |
| 1778034864 | 20.56° C | 90% | 1016.5 hPa | 0 mm | - | 0 W/m² | - |
| 1778034561 | 20.56° C | 89% | 1016.3 hPa | 0 mm | - | 0 W/m² | - |
| 1778034258 | 20.56° C | 89% | 1016.5 hPa | 0 mm | - | 0 W/m² | - |
| 1778033956 | 21.11° C | 89% | 1016.5 hPa | 0 mm | - | 0 W/m² | - |
| 1778033350 | 21.11° C | 89% | 1016.3 hPa | 0 mm | - | 0 W/m² | - |
| 1778033048 | 21.11° C | 88% | 1016.2 hPa | 0 mm | - | 0 W/m² | - |
| 1778032745 | 21.67° C | 88% | 1016.6 hPa | 0 mm | - | 0 W/m² | - |
| 1778032443 | 21.67° C | 88% | 1016.4 hPa | 0 mm | - | 0 W/m² | - |
| 1778032139 | 21.67° C | 87% | 1016.3 hPa | 0 mm | - | 0 W/m² | - |
| 1778031836 | 21.67° C | 87% | 1016.3 hPa | 0 mm | - | 0 W/m² | - |
| 1778031532 | 21.67° C | 87% | 1015.8 hPa | 0 mm | - | 0 W/m² | - |
| 1778031231 | 21.11° C | 88% | 1016.2 hPa | 0 mm | - | 0 W/m² | - |
| 1778030926 | 21.11° C | 87% | 1016.3 hPa | 0 mm | - | 0 W/m² | - |
| 1778030321 | 21.67° C | 86% | 1015.8 hPa | 0 mm | - | 0 W/m² | - |
| 1778030017 | 21.67° C | 86% | 1015.7 hPa | 0 mm | - | 0 W/m² | - |
| 1778029715 | 21.67° C | 86% | 1015.5 hPa | 0 mm | - | 0 W/m² | - |
| 1778029413 | 21.67° C | 85% | 1016 hPa | 0 mm | - | 0 W/m² | - |
| 1778028806 | 22.22° C | 84% | 1015.6 hPa | 0 mm | - | 0 W/m² | - |
| 1778028502 | 22.22° C | 84% | 1015.9 hPa | 0 mm | - | 0 W/m² | - |
* Rain latest hour (hover to see other rain measurements)
** Current wind speed in m/s (hover to see current wind gust speed)